{"data":{"norad_id":57812,"intl_designator":"2023-138E","name":"STARLINK-30395","alt_names":[],"object_type":"PAYLOAD","status":"ACTIVE","operator":null,"country":"US","launch_date":"2023-09-09","launch_site_code":"AFETR","launch_vehicle":null,"mission":null,"orbit_class":"UNKNOWN","rcs_meters":null,"size_class":null,"mass_kg":null,"dimensions":null,"purposes":["comms"],"wikipedia_slug":null,"has_3d_model":false,"image_url":null,"decayed_at":null,"tle_current":{"epoch":"2026-05-25T02:19:05.325024Z","epoch_age_seconds":67532,"freshness":"FRESH","line1":"1 57812U 23138E   26145.09658941  .00000185  00000+0  16244-4 0  9994","line2":"2 57812  43.0068 162.6858 0001754 272.5057  87.5594 15.27570986150427","mean_motion":15.27570986,"eccentricity":0.0001754,"inclination_deg":43.0068,"raan_deg":162.6858,"arg_perigee_deg":272.5057,"mean_anomaly_deg":87.5594,"bstar":1.6244e-5,"rev_number":15042,"period_min":94.267304969617,"perigee_km":481.87263055563,"apogee_km":484.27954410667,"semimajor_km":6861.2130873311,"source":"CELESTRAK","updated_at":"2026-05-25T13:38:18.409116Z"}}}